Regional Weather Roundup
Issued by NWS Wakefield, VA

Home | Current Version | Previous Version | Graphics & Text | Print | Product List | Glossary On
Versions: 1 2 3 4 5 6 7 8 9 10 11 12 13 14 15 16 17 18 19 20 21 22 23 24 25 26 27 28 29 30 31 32 33 34 35 36 37 38 39 40 41 42 43 44 45 46 47 48 49 50
000
ASUS41 KAKQ 021914
RWRAKQ

REGIONAL WEATHER ROUNDUP
NATIONAL WEATHER SERVICE WAKEFIELD VA
300 PM EDT THU JUL 02 2015

Note: "fair" indicates few or no clouds below 12,000 feet with no
significant weather and/or obstructions to visibility. * = Denotes
station may not report precipitation (e.g., rain,snow,etc.),
thunder or fog.

VAZ042-051-052>054-056-022000-
NORTHERN VIRGINIA

CITY           SKY/WX    TMP DP  RH WIND       PRES   REMARKS
WASH NATIONAL  CLOUDY    77  65  66 E3        29.90S
DULLES         CLOUDY    72  62  71 N7        29.91S
FORT BELVOIR   CLOUDY    74  65  72 VRB1      29.90R
QUANTICO       CLOUDY    76  65  68 E6        29.90S
FREDERICKSBRG* PTSUNNY   77  65  67 NE6       29.89
STAFFORD*      PTSUNNY   76  63  65 NE3       29.94
WARRENTON      CLOUDY    73  67  81 NW3       29.91
CULPEPER*      CLOUDY    71  64  80 N5        29.92S
MANASSAS*      CLOUDY    73  64  73 N6        29.91R
LEESBURG*      CLOUDY    72  68  88 NW7       29.93
WINCHESTER     CLOUDY    73  66  78 CALM      29.93
FRONT ROYAL*   CLOUDY    70  66  88 CALM      29.92
LURAY*         CLOUDY    72  66  83 CALM      29.94
$$

VAZ048-049-060>072-079>083-022000-
CENTRAL AND SOUTH CENTRAL VIRGINIA

CITY           SKY/WX    TMP DP  RH WIND       PRES   REMARKS
RICHMOND       LGT RAIN  79  72  79 CALM      29.86S
CHESTERFIELD*  NOT AVBL
PETERSBURG*    MOSUNNY   86  74  66 W9        29.86
HANOVER        PTSUNNY   79  69  71 N6        29.88F
TAPPAHANNOCK*  PTSUNNY   77  68  72 N5        29.87
QUINTON*       MOCLDY    73  72  94 CALM      29.86R
CHARLOTTSVILLE CLOUDY    75  65  70 CALM      29.92R
GORDONSVILLE*  CLOUDY    73  64  73 CALM      29.91
ORANGE*        CLOUDY    75  63  64 NW5       29.93
LOUISA*        PTSUNNY   77  63  61 NE7       29.90
BUMPASS*       CLOUDY    74  65  74 CALM      29.90
FARMVILLE*     MOSUNNY   80  66  63 N5        29.88
CREWE*         MOCLDY    80  70  70 CALM      29.88
FORT PICKETT*  MOCLDY    80  70  71 W9        29.88
CHASE CITY*    FAIR      85  72  65 W7        29.88
CLARKSVILLE*   MOCLDY    82  68  61 W7        29.88
SOUTH HILL*    PTSUNNY   84  68  58 SW8G16    29.94
LAWRENCEVILLE* NOT AVBL
EMPORIA*         N/A     81  68  65 S5        29.89
$$

VAZ088>098-022000-
SOUTHEAST VIRGINIA

CITY           SKY/WX    TMP DP  RH WIND       PRES   REMARKS
NORFOLK        HVY RAIN  76  68  76 S20G35    29.85F
VIRGINIA BEACH PTSUNNY   90  68  48 SW15      29.83F THUNDER
NORFOLK NAVAL  MOSUNNY   86  66  51 W10G21    29.85F THUNDER HAZE
WEST POINT*    CLOUDY    79  70  73 NW6       29.87R
SALUDA*        CLOUDY    76  72  86 N9        29.86
NEWPORT NEWS   PTSUNNY   85  72  65 SW13      29.84F
LANGLEY AFB    PTSUNNY   84  70  62 SW15G22   29.83F
FORT EUSTIS    PTSUNNY   85  71  63 SW9       29.83F
WILLIAMSBURG*  PTSUNNY   88  73  62 W5        29.86  HX  96
HR EXEC AP*    FAIR      84  72  65 SW9       29.87S
FRANKLIN*      PTSUNNY   84  70  61 SW8       29.87
WAKEFIELD      PTSUNNY   84  69  60 SW9       29.85F
$$

VAZ020-022-025-037-045-022000-
WEST CENTRAL AND SOUTHWEST VIRGINIA

CITY           SKY/WX    TMP DP  RH WIND       PRES   REMARKS
STAUNTON*      CLOUDY    73  63  70 CALM      29.97
WAYNESBORO*    CLOUDY    68  63  84 CALM      29.97
HOT SPRINGS VA DRIZZLE   64  64 100 W7        30.04
LYNCHBURG      CLOUDY    76  64  66 N5        29.93S
DANVILLE       CLOUDY    83  68  60 SW8       29.90F
SOUTH BOSTON*  CLOUDY    81  69  65 MISG      29.89
MARTINSVILLE   HVY RAIN  75  68  80 NW8       29.96R
ROANOKE        CLOUDY    74  62  66 NW7       29.96R
BLACKSBURG     DRIZZLE   68  66  94 CALM      30.02
DUBLIN*        RAIN      69  68  95 NE6       30.00
MARION*        CLOUDY    68  66  91 W7        30.02
HILLSVILLE*    HVY RAIN  66  64  93 NW6       30.00
RICHLANDS*     CLOUDY    66  66  97 SW6       30.01
WISE*          CLOUDY    68  66  94 SW10      30.02
ABINGDON*      RAIN      71  69  95 W6        30.00
$$

MDZ021>025-VAZ099-100-022000-
SOUTHERN MARYLAND AND THE DELMARVA PENINSULA

CITY           SKY/WX    TMP DP  RH WIND       PRES   REMARKS
PATUXENT RIVER PTSUNNY   75  67  76 N12       29.88S
BAY BRIDGE APT   N/A     72  64  78 N5        29.90R
LEONARDTOWN    CLOUDY    73  64  73 NE5       29.90S
DOVER          CLOUDY    69  69  97 N5        29.88R
GEORGETOWN     CLOUDY    71  67  87 NE8       29.89F
EASTON         RAIN      72  70  94 N8        29.93R
CAMBRIDGE      CLOUDY    73  66  78 NE5       29.88S
SALISBURY      CLOUDY    72  68  87 NE7       29.88R
OCEAN CITY     CLOUDY    73  69  87 N8        29.87R
WALLOPS ISLAND LGT RAIN  77  74  90 NE12      29.87R
ACCOMACK*      CLOUDY    82  73  74 SW7       29.85
$$

NCZ012>017-030>032-022000-
NORTH CENTRAL AND EASTERN NORTH CAROLINA

CITY           SKY/WX    TMP DP  RH WIND       PRES   REMARKS
ROANOKE RAPIDS FAIR      86  68  54 W10       29.88
RALEIGH        PTSUNNY   86  69  56 SW17      29.91F
ELIZABETH CITY PTSUNNY   85  70  60 SW16      29.87S
AHOSKIE*       PTSUNNY   81  72  73 CALM      29.88S
EDENTON*         N/A     85  71  63 SW12G20   29.88
CURRITUCK*     PTSUNNY   87  69  54 SW9       29.87
KILL DEVIL HLS PTSUNNY   89  69  51 SW10      29.87
MANTEO         PTSUNNY   87  72  60 SW15      29.88
CAPE HATTERAS  MOSUNNY   83  74  74 SW14      29.93F
TARBORO*         N/A     88  69  52 SW12G17   29.89
GOLDSBORO      MOSUNNY   89  69  50 W12G18    29.88F
WASHINGTON     PTSUNNY   88  67  49 SW21      29.89
GREENVILLE     PTSUNNY   86  68  54 W9G16     29.91
NEW BERN       PTSUNNY   90  70  51 W7        29.92F HX  95
WILMINGTON     PTSUNNY   89  71  55 SW15G21   29.94F HX  95
$$

VAZ048-022000-
ELSEWHERE

CITY           SKY/WX    TMP DP  RH WIND       PRES   REMARKS
HARRISBURG PA  CLOUDY    75  64  68 SE3       29.89F
BALTIMORE      CLOUDY    75  63  66 NE5       29.89S
ANNAPOLIS      CLOUDY    73  65  75 N7        29.89S
ANDREWS AFB    CLOUDY    72  66  80 E5        29.90R
PHILADELPHIA   CLOUDY    77  63  61 NE6       29.89F
HENDERSON NC   MOSUNNY   83  64  53 W6        29.90
GREENSBORO     CLOUDY    85  62  46 SW12      29.90F
ROCKY MOUNT    MOSUNNY   85  68  56 SW13      29.89F
$$

VAZ100-022000-
MARINE

STATION/POSITION TIME  TEMP    WIND        PRES    WAVE   SWELL
                       AIR SEA DIR/SP/G            HT/PER HT/PER
                 (UTC) (F)     (DEG/KT/KT) (MB)    (FT/S) (FT/S)
BRANDYWINE LGT   1800   70 73   60/ 12/ 15 1012.2R
CAPE MAY NJ      1800   69 77   50/  6/  9 1011.1F
LEWES DE         1800   69 73   70/ 10/ 11 1011.8R
15NM E FENWICK I 1850   72 73              1010.9F   3/ 8
OCEAN-CITY-INLET 1800   71 71   60/  3/  5 1010.9F
WACHAPREAGUE VA  1800   84 82  250/  1/  6 1010.8F
GOOSES REEF MD   1900   73 78   60/ 10/ 12 1013.0R
COVE POINT MD    1800   72      20/  9/ 13 1012.7R
SOLOMONS ISLAND  1800      80                N/A
BISHOPS HEAD MD  1800   75      20/  7/ 10 1011.2F
PINEY POINT MD   1800           40/  9/ 14   N/A
CAMBRIDGE MD     1800   72 79  360/  7/  9 1011.7R
LEWISETTA VA     1800   77 80   30/  6/  9 1011.0F
RAPPAHANNOCK LGT 1800          220/ 10/ 11 1011.3F
STINGRAY PT      1900   76 81   20/ 16/ 17 1010.8S   2/ 2
YORK RVR RNG VA  1800   81     240/ 11/ 13 1010.2F
YORKTOWN VA      1800   80 79  220/  8/ 13 1010.5F
JAMESTOWN VA     1900   83 83  250/ 10/ 14   N/A
DOMINION TERM VA 1800   81     250/ 11/ 13 1010.9F
KIPTOPEKE VA     1800      83  270/  7/  9   N/A
CHES BAY BRIDGE  1800   82 78  220/ 13/ 15 1010.4F
CAPE HENRY VA    1800   83     220/  7/ 12 1009.4F
CHESAPEAKE LGHT  1800   79     200/ 15/ 15 1011.6F
WILLOUBY STN VA  1800   80     250/ 11/ 13 1011.7F
CAPE HENRY BUOY  1828      78                N/A     3/ 8
1ST LANDING BUOY 1900      77              1010.3F   1/ 4
CAPE CHARLES BUO 1826      76                N/A     3/ 8   2/ 8
OFFSHORE WE BUOY 1811      78                N/A     4/ 8   3/ 8
64NM E OF VA BCH 1850   79 77  190/ 16/ 17 1011.0F   5/ 8   3/ 8
DUCK PIER NC     1800   85 63  200/ 13/ 17 1010.7F
44100 DUCK FRF   1824      78                N/A     3/ 8
44056 DUCK FRF   1811      71                N/A     2/ 8
OREGON INLET NC  1800   83 82  190/ 18/ 22 1012.4F
HATTERAS NC      1800   82 79  210/ 11/ 17 1013.4F
DIAMOND SHLS NC  1850   82 83  220/ 21/ 23 1013.3F   4/ 6   2/ 8
CAPE LOOKOUT NC  1900   83     220/ 12/ 18 1013.7F
$$



USA.gov is the U.S. government's official web portal to all federal, state and local government web resources and services.